sat.trackr.live / text

‹ back to catalog

STARLINK-35846

NORAD 66367 · 2025-254V

PAYLOAD ACTIVE UNKNOWN

§ Identity

Operator
Country
US
Launch date
2025-11-06
Launch site
AFWTR
Launch vehicle
Mass (kg)
RCS (m²)

Purposes: comms

External: N2YO · Heavens-Above · Gunter

§ Orbital elements

Epoch: 2026-09-20T13:49:53.925312Z

Period
93.85 min
Inclination
53.1597°
Eccentricity
0.0001353
Mean motion
15.34414239 rev/d
Perigee alt
461.7 km
Apogee alt
463.6 km
Semi-major
6,840.8 km
B*
4.3130e-4
RAAN
45.0971°
Arg perigee
82.6504°
Mean anomaly
277.4652°
Rev number
4,884

§ Raw data

STARLINK-358461 66367U 25254V   26263.57631858  .00014230  00000+0  43130-3 0  99912 66367  53.1597  45.0971 0001353  82.6504 277.4652 15.34414239 48846

JSON: /api/v1/satellites/66367 · /tle

For live sub-satellite position, see the globe view (requires WebGL).

§ Visibility from observer

Set your observer location to see the next 7 days of passes ≥ 10°. The values pass through the URL so the page stays shareable.

No JS? Fill the form by hand. The geolocation button needs JavaScript.